Year,Month,Day,Hour,Minute,Value (Times are PST for temperature in C)
2016,08,14,00,00,18.30
2016,08,14,00,01,18.30
2016,08,14,00,02,18.30
2016,08,14,00,03,18.30
2016,08,14,00,04,18.30
2016,08,14,00,05,18.30
2016,08,14,00,06,18.20
2016,08,14,00,07,18.20
2016,08,14,00,08,18.20
2016,08,14,00,09,18.20
2016,08,14,00,10,18.10
2016,08,14,00,11,18.10
2016,08,14,00,12,18.10
2016,08,14,00,13,18.00
2016,08,14,00,14,18.00
2016,08,14,00,15,18.00
2016,08,14,00,16,17.90
2016,08,14,00,17,17.90
2016,08,14,00,18,17.90
2016,08,14,00,19,17.80
2016,08,14,00,20,17.80
2016,08,14,00,21,17.80
2016,08,14,00,22,17.70
2016,08,14,00,23,17.70
2016,08,14,00,24,17.70
2016,08,14,00,25,17.70
2016,08,14,00,26,17.60
2016,08,14,00,27,17.60
2016,08,14,00,28,17.60
2016,08,14,00,29,17.60
2016,08,14,00,30,17.60
2016,08,14,00,31,17.50
2016,08,14,00,32,17.50
2016,08,14,00,33,17.50
2016,08,14,00,34,17.50
2016,08,14,00,35,17.50
2016,08,14,00,36,17.50
2016,08,14,00,37,17.40
2016,08,14,00,38,17.50
2016,08,14,00,39,17.40
2016,08,14,00,40,17.40
2016,08,14,00,41,17.40
2016,08,14,00,42,17.40
2016,08,14,00,43,17.40
2016,08,14,00,44,17.40
2016,08,14,00,45,17.40
2016,08,14,00,46,17.30
2016,08,14,00,47,17.30
2016,08,14,00,48,17.30
2016,08,14,00,49,17.30
2016,08,14,00,50,17.20
2016,08,14,00,51,17.20
2016,08,14,00,52,17.20
2016,08,14,00,53,17.20
2016,08,14,00,54,17.20
2016,08,14,00,55,17.20
2016,08,14,00,56,17.20
2016,08,14,00,57,17.20
2016,08,14,00,58,17.20
2016,08,14,00,59,17.20
2016,08,14,01,00,17.30
2016,08,14,01,01,17.30
2016,08,14,01,02,17.30
2016,08,14,01,03,17.30
2016,08,14,01,04,17.30
2016,08,14,01,05,17.30
2016,08,14,01,06,17.20
2016,08,14,01,07,17.20
2016,08,14,01,08,17.20
2016,08,14,01,09,17.20
2016,08,14,01,10,17.20
2016,08,14,01,11,17.10
2016,08,14,01,12,17.10
2016,08,14,01,13,17.10
2016,08,14,01,14,17.00
2016,08,14,01,15,17.00
2016,08,14,01,16,16.90
2016,08,14,01,17,16.90
2016,08,14,01,18,16.90
2016,08,14,01,19,16.80
2016,08,14,01,20,16.80
2016,08,14,01,21,16.80
2016,08,14,01,22,16.70
2016,08,14,01,23,16.70
2016,08,14,01,24,16.70
2016,08,14,01,25,16.60
2016,08,14,01,26,16.60
2016,08,14,01,27,16.60
2016,08,14,01,28,16.50
2016,08,14,01,29,16.50
2016,08,14,01,30,16.40
2016,08,14,01,31,16.40
2016,08,14,01,32,16.40
2016,08,14,01,33,16.40
2016,08,14,01,34,16.30
2016,08,14,01,35,16.30
2016,08,14,01,36,16.30
2016,08,14,01,37,16.30
2016,08,14,01,38,16.20
2016,08,14,01,39,16.20
2016,08,14,01,40,16.20
2016,08,14,01,41,16.20
2016,08,14,01,42,16.10
2016,08,14,01,43,16.10
2016,08,14,01,44,16.10
2016,08,14,01,45,16.10
2016,08,14,01,46,16.00
2016,08,14,01,47,16.00
2016,08,14,01,48,16.00
2016,08,14,01,49,15.90
2016,08,14,01,50,15.90
2016,08,14,01,51,15.90
2016,08,14,01,52,15.80
2016,08,14,01,53,15.80
2016,08,14,01,54,15.80
2016,08,14,01,55,15.80
2016,08,14,01,56,15.80
2016,08,14,01,57,15.80
2016,08,14,01,58,15.70
2016,08,14,01,59,15.70
2016,08,14,02,00,15.70
2016,08,14,02,01,15.70
2016,08,14,02,02,15.70
2016,08,14,02,03,15.70
2016,08,14,02,04,15.70
2016,08,14,02,05,15.70
2016,08,14,02,06,15.60
2016,08,14,02,07,15.60
2016,08,14,02,08,15.60
2016,08,14,02,09,15.60
2016,08,14,02,10,15.50
2016,08,14,02,11,15.50
2016,08,14,02,12,15.50
2016,08,14,02,13,15.40
2016,08,14,02,14,15.40
2016,08,14,02,15,15.40
2016,08,14,02,16,15.40
2016,08,14,02,17,15.40
2016,08,14,02,18,15.30
2016,08,14,02,19,15.30
2016,08,14,02,20,15.30
2016,08,14,02,21,15.30
2016,08,14,02,22,15.30
2016,08,14,02,23,15.30
2016,08,14,02,24,15.30
2016,08,14,02,25,15.20
2016,08,14,02,26,15.20
2016,08,14,02,27,15.20
2016,08,14,02,28,15.20
2016,08,14,02,29,15.10
2016,08,14,02,30,15.10
2016,08,14,02,31,15.10
2016,08,14,02,32,15.10
2016,08,14,02,33,15.00
2016,08,14,02,34,15.00
2016,08,14,02,35,15.00
2016,08,14,02,36,15.00
2016,08,14,02,37,15.00
2016,08,14,02,38,15.00
2016,08,14,02,39,15.00
2016,08,14,02,40,15.00
2016,08,14,02,41,15.00
2016,08,14,02,42,15.00
2016,08,14,02,43,14.90
2016,08,14,02,44,14.90
2016,08,14,02,45,14.80
2016,08,14,02,46,14.80
2016,08,14,02,47,14.80
2016,08,14,02,48,14.80
2016,08,14,02,49,14.70
2016,08,14,02,50,14.70
2016,08,14,02,51,14.70
2016,08,14,02,52,14.60
2016,08,14,02,53,14.60
2016,08,14,02,54,14.60
2016,08,14,02,55,14.60
2016,08,14,02,56,14.60
2016,08,14,02,57,14.50
2016,08,14,02,58,14.50
2016,08,14,02,59,14.50
2016,08,14,03,00,14.40
2016,08,14,03,01,14.40
2016,08,14,03,02,14.40
2016,08,14,03,03,14.40
2016,08,14,03,04,14.40
2016,08,14,03,05,14.30
2016,08,14,03,06,14.30
2016,08,14,03,07,14.30
2016,08,14,03,08,14.30
2016,08,14,03,09,14.30
2016,08,14,03,10,14.30
2016,08,14,03,11,14.20
2016,08,14,03,12,14.20
2016,08,14,03,13,14.20
2016,08,14,03,14,14.20
2016,08,14,03,15,14.20
2016,08,14,03,16,14.20
2016,08,14,03,17,14.20
2016,08,14,03,18,14.20
2016,08,14,03,19,14.20
2016,08,14,03,20,14.20
2016,08,14,03,21,14.20
2016,08,14,03,22,14.20
2016,08,14,03,23,14.10
2016,08,14,03,24,14.10
2016,08,14,03,25,14.10
2016,08,14,03,26,14.10
2016,08,14,03,27,14.10
2016,08,14,03,28,14.10
2016,08,14,03,29,14.10
2016,08,14,03,30,14.10
2016,08,14,03,31,14.10
2016,08,14,03,32,14.10
2016,08,14,03,33,14.10
2016,08,14,03,34,14.10
2016,08,14,03,35,14.10
2016,08,14,03,36,14.10
2016,08,14,03,37,14.10
2016,08,14,03,38,14.10
2016,08,14,03,39,14.10
2016,08,14,03,40,14.10
2016,08,14,03,41,14.10
2016,08,14,03,42,14.20
2016,08,14,03,43,14.20
2016,08,14,03,44,14.20
2016,08,14,03,45,14.20
2016,08,14,03,46,14.20
2016,08,14,03,47,14.20
2016,08,14,03,48,14.20
2016,08,14,03,49,14.30
2016,08,14,03,50,14.30
2016,08,14,03,51,14.30
2016,08,14,03,52,14.20
2016,08,14,03,53,14.20
2016,08,14,03,54,14.20
2016,08,14,03,55,14.20
2016,08,14,03,56,14.20
2016,08,14,03,57,14.10
2016,08,14,03,58,14.10
2016,08,14,03,59,14.10
2016,08,14,04,00,14.10
2016,08,14,04,01,14.10
2016,08,14,04,02,14.10
2016,08,14,04,03,14.00
2016,08,14,04,04,14.00
2016,08,14,04,05,14.00
2016,08,14,04,06,13.90
2016,08,14,04,07,13.90
2016,08,14,04,08,13.90
2016,08,14,04,09,13.90
2016,08,14,04,10,13.80
2016,08,14,04,11,13.80
2016,08,14,04,12,13.80
2016,08,14,04,13,13.80
2016,08,14,04,14,13.80
2016,08,14,04,15,13.80
2016,08,14,04,16,13.80
2016,08,14,04,17,13.70
2016,08,14,04,18,13.70
2016,08,14,04,19,13.70
2016,08,14,04,20,13.70
2016,08,14,04,21,13.70
2016,08,14,04,22,13.60
2016,08,14,04,23,13.60
2016,08,14,04,24,13.60
2016,08,14,04,25,13.60
2016,08,14,04,26,13.60
2016,08,14,04,27,13.60
2016,08,14,04,28,13.50
2016,08,14,04,29,13.50
2016,08,14,04,30,13.50
2016,08,14,04,31,13.50
2016,08,14,04,32,13.40
2016,08,14,04,33,13.40
2016,08,14,04,34,13.40
2016,08,14,04,35,13.40
2016,08,14,04,36,13.40
2016,08,14,04,37,13.40
2016,08,14,04,38,13.40
2016,08,14,04,39,13.40
2016,08,14,04,40,13.30
2016,08,14,04,41,13.30
2016,08,14,04,42,13.30
2016,08,14,04,43,13.30
2016,08,14,04,44,13.30
2016,08,14,04,45,13.20
2016,08,14,04,46,13.20
2016,08,14,04,47,13.20
2016,08,14,04,48,13.20
2016,08,14,04,49,13.20
2016,08,14,04,50,13.10
2016,08,14,04,51,13.10
2016,08,14,04,52,13.10
2016,08,14,04,53,13.10
2016,08,14,04,54,13.00
2016,08,14,04,55,13.00
2016,08,14,04,56,13.00
2016,08,14,04,57,12.90
2016,08,14,04,58,12.90
2016,08,14,04,59,12.90
2016,08,14,05,00,12.90
2016,08,14,05,01,12.90
2016,08,14,05,02,12.80
2016,08,14,05,03,12.80
2016,08,14,05,04,12.80
2016,08,14,05,05,12.80
2016,08,14,05,06,12.80
2016,08,14,05,07,12.80
2016,08,14,05,08,12.80
2016,08,14,05,09,12.70
2016,08,14,05,10,12.70
2016,08,14,05,11,12.70
2016,08,14,05,12,12.70
2016,08,14,05,13,12.70
2016,08,14,05,14,12.60
2016,08,14,05,15,12.60
2016,08,14,05,16,12.60
2016,08,14,05,17,12.60
2016,08,14,05,18,12.60
2016,08,14,05,19,12.60
2016,08,14,05,20,12.50
2016,08,14,05,21,12.50
2016,08,14,05,22,12.50
2016,08,14,05,23,12.50
2016,08,14,05,24,12.50
2016,08,14,05,25,12.50
2016,08,14,05,26,12.50
2016,08,14,05,27,12.40
2016,08,14,05,28,12.40
2016,08,14,05,29,12.40
2016,08,14,05,30,12.40
2016,08,14,05,31,12.40
2016,08,14,05,32,12.40
2016,08,14,05,33,12.40
2016,08,14,05,34,12.40
2016,08,14,05,35,12.40
2016,08,14,05,36,12.40
2016,08,14,05,37,12.40
2016,08,14,05,38,12.30
2016,08,14,05,39,12.30
2016,08,14,05,40,12.30
2016,08,14,05,41,12.30
2016,08,14,05,42,12.30
2016,08,14,05,43,12.30
2016,08,14,05,44,12.30
2016,08,14,05,45,12.30
2016,08,14,05,46,12.20
2016,08,14,05,47,12.20
2016,08,14,05,48,12.20
2016,08,14,05,49,12.20
2016,08,14,05,50,12.20
2016,08,14,05,51,12.20
2016,08,14,05,52,12.20
2016,08,14,05,53,12.20
2016,08,14,05,54,12.20
2016,08,14,05,55,12.20
2016,08,14,05,56,12.20
2016,08,14,05,57,12.10
2016,08,14,05,58,12.10
2016,08,14,05,59,12.10
2016,08,14,06,00,12.10
2016,08,14,06,01,12.20
2016,08,14,06,02,12.20
2016,08,14,06,03,12.20
2016,08,14,06,04,12.20
2016,08,14,06,05,12.10
2016,08,14,06,06,12.10
2016,08,14,06,07,12.10
2016,08,14,06,08,12.10
2016,08,14,06,09,12.10
2016,08,14,06,10,12.10
2016,08,14,06,11,12.10
2016,08,14,06,12,12.10
2016,08,14,06,13,12.10
2016,08,14,06,14,12.10
2016,08,14,06,15,12.00
2016,08,14,06,16,12.00
2016,08,14,06,17,12.00
2016,08,14,06,18,12.00
2016,08,14,06,19,12.00
2016,08,14,06,20,12.00
2016,08,14,06,21,11.90
2016,08,14,06,22,11.90
2016,08,14,06,23,11.90
2016,08,14,06,24,11.90
2016,08,14,06,25,11.90
2016,08,14,06,26,11.90
2016,08,14,06,27,11.90
2016,08,14,06,28,11.80
2016,08,14,06,29,11.80
2016,08,14,06,30,11.80
2016,08,14,06,31,11.80
2016,08,14,06,32,11.80
2016,08,14,06,33,11.80
2016,08,14,06,34,11.80
2016,08,14,06,35,11.80
2016,08,14,06,36,11.80
2016,08,14,06,37,11.80
2016,08,14,06,38,11.80
2016,08,14,06,39,11.80
2016,08,14,06,40,11.80
2016,08,14,06,41,11.80
2016,08,14,06,42,11.80
2016,08,14,06,43,11.80
2016,08,14,06,44,11.80
2016,08,14,06,45,11.80
2016,08,14,06,46,11.80
2016,08,14,06,47,11.80
2016,08,14,06,48,11.80
2016,08,14,06,49,11.80
2016,08,14,06,50,11.80
2016,08,14,06,51,11.80
2016,08,14,06,52,11.80
2016,08,14,06,53,11.80
2016,08,14,06,54,11.80
2016,08,14,06,55,11.80
2016,08,14,06,56,11.80
2016,08,14,06,57,11.80
2016,08,14,06,58,11.80
2016,08,14,06,59,11.80
2016,08,14,07,00,11.80
2016,08,14,07,01,11.80
2016,08,14,07,02,11.80
2016,08,14,07,03,11.80
2016,08,14,07,04,11.80
2016,08,14,07,05,11.80
2016,08,14,07,06,11.80
2016,08,14,07,07,11.80
2016,08,14,07,08,11.80
2016,08,14,07,09,11.80
2016,08,14,07,10,11.80
2016,08,14,07,11,11.80
2016,08,14,07,12,11.80
2016,08,14,07,13,11.80
2016,08,14,07,14,11.80
2016,08,14,07,15,11.80
2016,08,14,07,16,11.80
2016,08,14,07,17,11.80
2016,08,14,07,18,11.80
2016,08,14,07,19,11.80
2016,08,14,07,20,11.90
2016,08,14,07,21,11.90
2016,08,14,07,22,11.90
2016,08,14,07,23,11.90
2016,08,14,07,24,11.90
2016,08,14,07,25,11.90
2016,08,14,07,26,11.90
2016,08,14,07,27,11.90
2016,08,14,07,28,12.00
2016,08,14,07,29,12.00
2016,08,14,07,30,12.10
2016,08,14,07,31,12.10
2016,08,14,07,32,12.10
2016,08,14,07,33,12.10
2016,08,14,07,34,12.10
2016,08,14,07,35,12.10
2016,08,14,07,36,12.20
2016,08,14,07,37,12.20
2016,08,14,07,38,12.30
2016,08,14,07,39,12.30
2016,08,14,07,40,12.40
2016,08,14,07,41,12.40
2016,08,14,07,42,12.40
2016,08,14,07,43,12.50
2016,08,14,07,44,12.50
2016,08,14,07,45,12.60
2016,08,14,07,46,12.60
2016,08,14,07,47,12.70
2016,08,14,07,48,12.70
2016,08,14,07,49,12.70
2016,08,14,07,50,12.80
2016,08,14,07,51,12.80
2016,08,14,07,52,12.90
2016,08,14,07,53,12.90
2016,08,14,07,54,13.00
2016,08,14,07,55,13.00
2016,08,14,07,56,13.10
2016,08,14,07,57,13.20
2016,08,14,07,58,13.30
2016,08,14,07,59,13.30
2016,08,14,08,00,13.40
2016,08,14,08,01,13.50
2016,08,14,08,02,13.60
2016,08,14,08,03,13.70
2016,08,14,08,04,13.80
2016,08,14,08,05,13.80
2016,08,14,08,06,13.90
2016,08,14,08,07,14.00
2016,08,14,08,08,14.00
2016,08,14,08,09,14.10
2016,08,14,08,10,14.20
2016,08,14,08,11,14.20
2016,08,14,08,12,14.20
2016,08,14,08,13,14.30
2016,08,14,08,14,14.30
2016,08,14,08,15,14.30
2016,08,14,08,16,14.40
2016,08,14,08,17,14.40
2016,08,14,08,18,14.40
2016,08,14,08,19,14.40
2016,08,14,08,20,14.40
2016,08,14,08,21,14.50
2016,08,14,08,22,14.50
2016,08,14,08,23,14.50
2016,08,14,08,24,14.60
2016,08,14,08,25,14.60
2016,08,14,08,26,14.60
2016,08,14,08,27,14.70
2016,08,14,08,28,14.70
2016,08,14,08,29,14.80
2016,08,14,08,30,14.80
2016,08,14,08,31,14.90
2016,08,14,08,32,14.90
2016,08,14,08,33,15.00
2016,08,14,08,34,15.00
2016,08,14,08,35,15.00
2016,08,14,08,36,15.00
2016,08,14,08,37,15.00
2016,08,14,08,38,15.00
2016,08,14,08,39,15.00
2016,08,14,08,40,15.10
2016,08,14,08,41,15.10
2016,08,14,08,42,15.20
2016,08,14,08,43,15.20
2016,08,14,08,44,15.30
2016,08,14,08,45,15.30
2016,08,14,08,46,15.30
2016,08,14,08,47,15.40
2016,08,14,08,48,15.40
2016,08,14,08,49,15.40
2016,08,14,08,50,15.40
2016,08,14,08,51,15.50
2016,08,14,08,52,15.60
2016,08,14,08,53,15.60
2016,08,14,08,54,15.60
2016,08,14,08,55,15.70
2016,08,14,08,56,15.70
2016,08,14,08,57,15.70
2016,08,14,08,58,15.80
2016,08,14,08,59,15.80
2016,08,14,09,00,15.80
2016,08,14,09,01,15.90
2016,08,14,09,02,16.00
2016,08,14,09,03,16.00
2016,08,14,09,04,16.10
2016,08,14,09,05,16.20
2016,08,14,09,06,16.20
2016,08,14,09,07,16.30
2016,08,14,09,08,16.40
2016,08,14,09,09,16.40
2016,08,14,09,10,16.50
2016,08,14,09,11,16.60
2016,08,14,09,12,16.60
2016,08,14,09,13,16.70
2016,08,14,09,14,16.70
2016,08,14,09,15,16.80
2016,08,14,09,16,16.80
2016,08,14,09,17,16.80
2016,08,14,09,18,16.90
2016,08,14,09,19,17.00
2016,08,14,09,20,17.10
2016,08,14,09,21,17.20
2016,08,14,09,22,17.30
2016,08,14,09,23,17.40
2016,08,14,09,24,17.60
2016,08,14,09,25,17.70
2016,08,14,09,26,17.80
2016,08,14,09,27,17.90
2016,08,14,09,28,18.00
2016,08,14,09,29,18.10
2016,08,14,09,30,18.20
2016,08,14,09,31,18.20
2016,08,14,09,32,18.30
2016,08,14,09,33,18.40
2016,08,14,09,34,18.50
2016,08,14,09,35,18.60
2016,08,14,09,36,18.60
2016,08,14,09,37,18.70
2016,08,14,09,38,18.80
2016,08,14,09,39,18.80
2016,08,14,09,40,18.80
2016,08,14,09,41,18.80
2016,08,14,09,42,18.80
2016,08,14,09,43,19.00
2016,08,14,09,44,19.50
2016,08,14,09,45,19.60
2016,08,14,09,46,19.70
2016,08,14,09,47,19.80
2016,08,14,09,48,19.90
2016,08,14,09,49,20.10
2016,08,14,09,50,20.20
2016,08,14,09,51,20.20
2016,08,14,09,52,20.30
2016,08,14,09,53,20.40
2016,08,14,09,54,20.50
2016,08,14,09,55,20.50
2016,08,14,09,56,20.50
2016,08,14,09,57,20.80
2016,08,14,09,58,20.90
2016,08,14,09,59,21.00
2016,08,14,10,00,21.10
2016,08,14,10,01,21.10
2016,08,14,10,02,21.20
2016,08,14,10,03,21.30
2016,08,14,10,04,21.40
2016,08,14,10,05,21.50
2016,08,14,10,06,21.70
2016,08,14,10,07,21.80
2016,08,14,10,08,21.90
2016,08,14,10,09,22.00
2016,08,14,10,10,22.10
2016,08,14,10,11,22.20
2016,08,14,10,12,22.30
2016,08,14,10,13,22.40
2016,08,14,10,14,22.40
2016,08,14,10,15,22.40
2016,08,14,10,16,22.50
2016,08,14,10,17,22.50
2016,08,14,10,18,22.60
2016,08,14,10,19,22.60
2016,08,14,10,20,22.60
2016,08,14,10,21,22.60
2016,08,14,10,22,22.60
2016,08,14,10,23,22.60
2016,08,14,10,24,22.60
2016,08,14,10,25,22.70
2016,08,14,10,26,22.70
2016,08,14,10,27,22.80
2016,08,14,10,28,22.80
2016,08,14,10,29,22.80
2016,08,14,10,30,22.80
2016,08,14,10,31,22.80
2016,08,14,10,32,22.80
2016,08,14,10,33,22.80
2016,08,14,10,34,22.80
2016,08,14,10,35,22.90
2016,08,14,10,36,22.90
2016,08,14,10,37,22.80
2016,08,14,10,38,22.80
2016,08,14,10,39,22.80
2016,08,14,10,40,22.80
2016,08,14,10,41,22.80
2016,08,14,10,42,22.80
2016,08,14,10,43,22.80
2016,08,14,10,44,22.90
2016,08,14,10,45,23.00
2016,08,14,10,46,23.00
2016,08,14,10,47,23.10
2016,08,14,10,48,23.10
2016,08,14,10,49,23.10
2016,08,14,10,50,23.10
2016,08,14,10,51,23.10
2016,08,14,10,52,23.20
2016,08,14,10,53,23.20
2016,08,14,10,54,23.30
2016,08,14,10,55,23.30
2016,08,14,10,56,23.30
2016,08,14,10,57,23.30
2016,08,14,10,58,23.40
2016,08,14,10,59,23.40
2016,08,14,11,00,23.50
2016,08,14,11,01,23.50
2016,08,14,11,02,23.60
2016,08,14,11,03,23.60
2016,08,14,11,04,23.70
2016,08,14,11,05,23.80
2016,08,14,11,06,23.80
2016,08,14,11,07,24.00
2016,08,14,11,08,24.20
2016,08,14,11,09,24.30
2016,08,14,11,10,24.50
2016,08,14,11,11,24.60
2016,08,14,11,12,24.70
2016,08,14,11,13,24.90
2016,08,14,11,14,25.00
2016,08,14,11,15,25.00
2016,08,14,11,16,25.10
2016,08,14,11,17,25.20
2016,08,14,11,18,25.20
2016,08,14,11,19,25.30
2016,08,14,11,20,25.30
2016,08,14,11,21,25.30
2016,08,14,11,22,25.30
2016,08,14,11,23,25.40
2016,08,14,11,24,25.40
2016,08,14,11,25,25.40
2016,08,14,11,26,25.40
2016,08,14,11,27,25.40
2016,08,14,11,28,25.40
2016,08,14,11,29,25.40
2016,08,14,11,30,25.40
2016,08,14,11,31,25.40
2016,08,14,11,32,25.50
2016,08,14,11,33,25.50
2016,08,14,11,34,25.40
2016,08,14,11,35,25.40
2016,08,14,11,36,25.30
2016,08,14,11,37,25.20
2016,08,14,11,38,25.20
2016,08,14,11,39,25.10
2016,08,14,11,40,25.10
2016,08,14,11,41,25.10
2016,08,14,11,42,25.20
2016,08,14,11,43,25.30
2016,08,14,11,44,25.40
2016,08,14,11,45,25.50
2016,08,14,11,46,25.60
2016,08,14,11,47,25.70
2016,08,14,11,48,25.80
2016,08,14,11,49,25.80
2016,08,14,11,50,25.90
2016,08,14,11,51,25.90
2016,08,14,11,52,26.00
2016,08,14,11,53,26.10
2016,08,14,11,54,26.20
2016,08,14,11,55,26.20
2016,08,14,11,56,26.20
2016,08,14,11,57,26.20
2016,08,14,11,58,26.30
2016,08,14,11,59,26.30
2016,08,14,12,00,26.30
2016,08,14,12,01,26.30
2016,08,14,12,02,26.30
2016,08,14,12,03,26.20
2016,08,14,12,04,26.10
2016,08,14,12,05,26.00
2016,08,14,12,06,25.90
2016,08,14,12,07,25.90
2016,08,14,12,08,25.90
2016,08,14,12,09,25.90
2016,08,14,12,10,25.90
2016,08,14,12,11,25.90
2016,08,14,12,12,25.90
2016,08,14,12,13,25.90
2016,08,14,12,14,25.90
2016,08,14,12,15,26.00
2016,08,14,12,16,26.10
2016,08,14,12,17,26.10
2016,08,14,12,18,26.10
2016,08,14,12,19,26.10
2016,08,14,12,20,26.10
2016,08,14,12,21,26.10
2016,08,14,12,22,26.20
2016,08,14,12,23,26.30
2016,08,14,12,24,26.40
2016,08,14,12,25,26.60
2016,08,14,12,26,26.70
2016,08,14,12,27,26.70
2016,08,14,12,28,26.80
2016,08,14,12,29,26.80
2016,08,14,12,30,26.80
2016,08,14,12,31,26.90
2016,08,14,12,32,26.90
2016,08,14,12,33,27.00
2016,08,14,12,34,27.00
2016,08,14,12,35,27.10
2016,08,14,12,36,27.20
2016,08,14,12,37,27.20
2016,08,14,12,38,27.10
2016,08,14,12,39,26.90
2016,08,14,12,40,26.80
2016,08,14,12,41,26.70
2016,08,14,12,42,26.60
2016,08,14,12,43,26.60
2016,08,14,12,44,26.50
2016,08,14,12,45,26.50
2016,08,14,12,46,26.40
2016,08,14,12,47,26.40
2016,08,14,12,48,26.50
2016,08,14,12,49,26.50
2016,08,14,12,50,26.60
2016,08,14,12,51,26.70
2016,08,14,12,52,26.80
2016,08,14,12,53,26.80
2016,08,14,12,54,26.80
2016,08,14,12,55,26.80
2016,08,14,12,56,26.80
2016,08,14,12,57,26.80
2016,08,14,12,58,26.70
2016,08,14,12,59,26.80
2016,08,14,13,00,26.80
2016,08,14,13,01,26.80
2016,08,14,13,02,26.80
2016,08,14,13,03,26.80
2016,08,14,13,04,26.80
2016,08,14,13,05,26.80
2016,08,14,13,06,26.80
2016,08,14,13,07,26.80
2016,08,14,13,08,26.80
2016,08,14,13,09,26.80
2016,08,14,13,10,26.70
2016,08,14,13,11,26.60
2016,08,14,13,12,26.60
2016,08,14,13,13,26.70
2016,08,14,13,14,26.70
2016,08,14,13,15,26.80
2016,08,14,13,16,26.80
2016,08,14,13,17,26.90
2016,08,14,13,18,27.00
2016,08,14,13,19,27.10
2016,08,14,13,20,27.20
2016,08,14,13,21,27.20
2016,08,14,13,22,27.20
2016,08,14,13,23,27.20
2016,08,14,13,24,27.20
2016,08,14,13,25,27.20
2016,08,14,13,26,27.30
2016,08,14,13,27,27.30
2016,08,14,13,28,27.30
2016,08,14,13,29,27.30
2016,08,14,13,30,27.30
2016,08,14,13,31,27.40
2016,08,14,13,32,27.40
2016,08,14,13,33,27.50
2016,08,14,13,34,27.60
2016,08,14,13,35,27.60
2016,08,14,13,36,27.70
2016,08,14,13,37,27.70
2016,08,14,13,38,27.70
2016,08,14,13,39,27.70
2016,08,14,13,40,27.70
2016,08,14,13,41,27.70
2016,08,14,13,42,27.70
2016,08,14,13,43,27.70
2016,08,14,13,44,27.60
2016,08,14,13,45,27.60
2016,08,14,13,46,27.60
2016,08,14,13,47,27.60
2016,08,14,13,48,27.40
2016,08,14,13,49,27.30
2016,08,14,13,50,27.30
2016,08,14,13,51,27.30
2016,08,14,13,52,27.30
2016,08,14,13,53,27.30
2016,08,14,13,54,27.30
2016,08,14,13,55,27.30
2016,08,14,13,56,27.30
2016,08,14,13,57,27.20
2016,08,14,13,58,27.20
2016,08,14,13,59,27.30
2016,08,14,14,00,27.30
2016,08,14,14,01,27.30
2016,08,14,14,02,27.30
2016,08,14,14,03,27.30
2016,08,14,14,04,27.30
2016,08,14,14,05,27.30
2016,08,14,14,06,27.30
2016,08,14,14,07,27.40
2016,08,14,14,08,27.40
2016,08,14,14,09,27.40
2016,08,14,14,10,27.50
2016,08,14,14,11,27.50
2016,08,14,14,12,27.50
2016,08,14,14,13,27.40
2016,08,14,14,14,27.40
2016,08,14,14,15,27.30
2016,08,14,14,16,27.30
2016,08,14,14,17,27.30
2016,08,14,14,18,27.40
2016,08,14,14,19,27.40
2016,08,14,14,20,27.50
2016,08,14,14,21,27.50
2016,08,14,14,22,27.60
2016,08,14,14,23,27.60
2016,08,14,14,24,27.50
2016,08,14,14,25,27.50
2016,08,14,14,26,27.40
2016,08,14,14,27,27.30
2016,08,14,14,28,27.30
2016,08,14,14,29,27.30
2016,08,14,14,30,27.30
2016,08,14,14,31,27.30
2016,08,14,14,32,27.30
2016,08,14,14,33,27.40
2016,08,14,14,34,27.50
2016,08,14,14,35,27.50
2016,08,14,14,36,27.60
2016,08,14,14,37,27.60
2016,08,14,14,38,27.70
2016,08,14,14,39,27.70
2016,08,14,14,40,27.70
2016,08,14,14,41,27.70
2016,08,14,14,42,27.80
2016,08,14,14,43,27.80
2016,08,14,14,44,27.90
2016,08,14,14,45,27.90
2016,08,14,14,46,28.00
2016,08,14,14,47,28.10
2016,08,14,14,48,28.20
2016,08,14,14,49,28.20
2016,08,14,14,50,28.20
2016,08,14,14,51,28.10
2016,08,14,14,52,28.00
2016,08,14,14,53,28.00
2016,08,14,14,54,27.90
2016,08,14,14,55,27.90
2016,08,14,14,56,27.80
2016,08,14,14,57,27.80
2016,08,14,14,58,27.80
2016,08,14,14,59,27.70
2016,08,14,15,00,27.70
2016,08,14,15,01,27.70
2016,08,14,15,02,27.70
2016,08,14,15,03,27.70
2016,08,14,15,04,27.80
2016,08,14,15,05,27.80
2016,08,14,15,06,27.80
2016,08,14,15,07,27.80
2016,08,14,15,08,27.80
2016,08,14,15,09,27.80
2016,08,14,15,10,27.80
2016,08,14,15,11,27.80
2016,08,14,15,12,27.90
2016,08,14,15,13,27.90
2016,08,14,15,14,28.00
2016,08,14,15,15,28.00
2016,08,14,15,16,28.10
2016,08,14,15,17,28.10
2016,08,14,15,18,28.10
2016,08,14,15,19,28.10
2016,08,14,15,20,28.20
2016,08,14,15,21,28.20
2016,08,14,15,22,28.20
2016,08,14,15,23,28.20
2016,08,14,15,24,28.20
2016,08,14,15,25,28.20
2016,08,14,15,26,28.20
2016,08,14,15,27,28.20
2016,08,14,15,28,28.20
2016,08,14,15,29,28.20
2016,08,14,15,30,28.20
2016,08,14,15,31,28.20
2016,08,14,15,32,28.20
2016,08,14,15,33,28.20
2016,08,14,15,34,28.20
2016,08,14,15,35,28.20
2016,08,14,15,36,28.20
2016,08,14,15,37,28.10
2016,08,14,15,38,28.10
2016,08,14,15,39,28.10
2016,08,14,15,40,28.10
2016,08,14,15,41,28.10
2016,08,14,15,42,28.10
2016,08,14,15,43,28.20
2016,08,14,15,44,28.20
2016,08,14,15,45,28.20
2016,08,14,15,46,28.20
2016,08,14,15,47,28.20
2016,08,14,15,48,28.10
2016,08,14,15,49,28.10
2016,08,14,15,50,28.10
2016,08,14,15,51,28.10
2016,08,14,15,52,28.10
2016,08,14,15,53,28.10
2016,08,14,15,54,28.10
2016,08,14,15,55,28.10
2016,08,14,15,56,28.10
2016,08,14,15,57,28.10
2016,08,14,15,58,28.10
2016,08,14,15,59,28.00
2016,08,14,16,00,28.00
2016,08,14,16,01,28.00
2016,08,14,16,02,28.10
2016,08,14,16,03,28.10
2016,08,14,16,04,28.20
2016,08,14,16,05,28.20
2016,08,14,16,06,28.20
2016,08,14,16,07,28.30
2016,08,14,16,08,28.30
2016,08,14,16,09,28.40
2016,08,14,16,10,28.40
2016,08,14,16,11,28.30
2016,08,14,16,12,28.30
2016,08,14,16,13,28.30
2016,08,14,16,14,28.30
2016,08,14,16,15,28.30
2016,08,14,16,16,28.40
2016,08,14,16,17,28.40
2016,08,14,16,18,28.40
2016,08,14,16,19,28.40
2016,08,14,16,20,28.40
2016,08,14,16,21,28.40
2016,08,14,16,22,28.40
2016,08,14,16,23,28.30
2016,08,14,16,24,28.30
2016,08,14,16,25,28.30
2016,08,14,16,26,28.40
2016,08,14,16,27,28.40
2016,08,14,16,28,28.40
2016,08,14,16,29,28.40
2016,08,14,16,30,28.50
2016,08,14,16,31,28.50
2016,08,14,16,32,28.50
2016,08,14,16,33,28.50
2016,08,14,16,34,28.50
2016,08,14,16,35,28.50
2016,08,14,16,36,28.40
2016,08,14,16,37,28.40
2016,08,14,16,38,28.30
2016,08,14,16,39,28.30
2016,08,14,16,40,28.20
2016,08,14,16,41,28.10
2016,08,14,16,42,28.10
2016,08,14,16,43,28.10
2016,08,14,16,44,28.10
2016,08,14,16,45,28.10
2016,08,14,16,46,28.20
2016,08,14,16,47,28.20
2016,08,14,16,48,28.20
2016,08,14,16,49,28.20
2016,08,14,16,50,28.20
2016,08,14,16,51,28.20
2016,08,14,16,52,28.20
2016,08,14,16,53,28.10
2016,08,14,16,54,28.10
2016,08,14,16,55,28.00
2016,08,14,16,56,28.00
2016,08,14,16,57,28.00
2016,08,14,16,58,28.10
2016,08,14,16,59,28.10
2016,08,14,17,00,28.10
2016,08,14,17,01,28.00
2016,08,14,17,02,27.90
2016,08,14,17,03,27.90
2016,08,14,17,04,27.90
2016,08,14,17,05,27.90
2016,08,14,17,06,27.90
2016,08,14,17,07,28.00
2016,08,14,17,08,27.90
2016,08,14,17,09,27.90
2016,08,14,17,10,28.00
2016,08,14,17,11,28.00
2016,08,14,17,12,28.10
2016,08,14,17,13,28.10
2016,08,14,17,14,28.10
2016,08,14,17,15,28.20
2016,08,14,17,16,28.20
2016,08,14,17,17,28.20
2016,08,14,17,18,28.20
2016,08,14,17,19,28.20